EW8494 Weather Reports


Display with metric or nautical units.
time (UTC)temp
F
wind
direction
speed
MPH
gust
MPH
rain 1hr
in
rain 24hr
in
rain mn
in
humidity
%
barometer
mb
20260504045029 69 0.0 0.0 0.00 0.00 0.00 31 1007.0
20260504044031 69 0.0 0.0 0.00 0.00 0.00 32 1007.0
20260504043031 68 0.0 0.0 0.00 0.00 0.00 34 1006.9
20260504042029 68 0.0 0.0 0.00 0.00 0.00 35 1006.8
20260504041030 67 0.0 0.0 0.00 0.00 0.00 39 1006.6
20260504040050 68 0.0 0.0 0.00 0.00 0.00 39 1006.6
20260504035030 69 0.0 0.0 0.00 0.00 0.00 39 1006.5
20260504034029 69 0.0 0.0 0.00 0.00 0.00 38 1006.4
20260504033029 71 0.0 0.0 0.00 0.00 0.00 37 1006.5
20260504032028 74 0.0 0.0 0.00 0.00 0.00 35 1006.5
20260504031048 75 0.0 0.0 0.00 0.00 0.00 31 1006.5
20260504030028 78 0.0 0.0 0.00 0.00 0.00 27 1006.6
20260504025028 81 0.0 0.0 0.00 0.00 0.00 23 1006.7
20260504024027 82 0.0 0.0 0.00 0.00 0.00 22 1006.7
20260504023027 82 0.0 0.0 0.00 0.00 0.00 21 1006.7
20260504022027 82 0.0 0.0 0.00 0.00 0.00 22 1006.8
20260504021027 82 0.0 0.0 0.00 0.00 0.00 21 1006.9
20260504020027 83 0.0 1.0 0.00 0.00 0.00 20 1006.9
20260504015026 84 45 1.0 2.0 0.00 0.00 0.00 18 1007.0
20260504014025 85 45 2.0 3.0 0.00 0.00 0.00 17 1007.1
20260504013026 85 45 1.0 3.0 0.00 0.00 0.00 15 1007.1
20260504012046 86 45 2.0 4.0 0.00 0.00 0.00 16 1007.2
20260504011025 86 45 2.0 3.0 0.00 0.00 0.00 16 1007.4
20260504010105 86 68 2.0 3.0 0.00 0.00 0.00 15 1007.5
20260504005024 87 45 2.0 3.0 0.00 0.00 0.00 15 1007.6
20260504004145 87 68 2.0 3.0 0.00 0.00 0.00 11 1007.7
20260504003024 87 45 3.0 4.0 0.00 0.00 0.00 14 1007.9
20260504002023 87 68 2.0 4.0 0.00 0.00 0.00 12 1008.0
20260504001104 88 45 1.0 4.0 0.00 0.00 0.00 14 1008.1
20260504000023 88 45 2.0 4.0 0.00 0.00 0.00 12 1008.1
20260503235023 87 23 1.0 4.0 0.00 0.00 0.00 14 1008.4
20260503234023 88 45 2.0 4.0 0.00 0.00 0.00 13 1008.6
20260503233022 88 0 2.0 5.0 0.00 0.00 0.00 11 1008.7
20260503232022 87 0.0 3.0 0.00 0.00 0.00 13 1008.9
20260503231021 88 0 4.0 9.0 0.00 0.00 0.00 10 1009.0
20260503230041 89 23 1.0 4.0 0.00 0.00 0.00 11 1009.0
20260503225021 88 68 2.0 6.0 0.00 0.00 0.00 12 1009.2
20260503224021 87 23 4.0 9.0 0.00 0.00 0.00 11 1009.4
20260503223021 87 45 3.0 7.0 0.00 0.00 0.00 10 1009.6
20260503222020 87 0 4.0 8.0 0.00 0.00 0.00 12 1009.7
20260503221020 86 0 5.0 10.0 0.00 0.00 0.00 12 1009.7
20260503220020 86 0 3.0 10.0 0.00 0.00 0.00 14 1009.8
20260503215040 86 23 1.0 4.0 0.00 0.00 0.00 14 1009.9
20260503214020 86 0 4.0 9.0 0.00 0.00 0.00 15 1010.1
20260503213020 86 45 2.0 9.0 0.00 0.00 0.00 14 1010.2
20260503212019 86 0 4.0 9.0 0.00 0.00 0.00 13 1010.3
20260503211019 86 23 4.0 9.0 0.00 0.00 0.00 16 1010.5
20260503210019 86 338 3.0 5.0 0.00 0.00 0.00 18 1010.7
20260503205019 85 0 4.0 10.0 0.00 0.00 0.00 17 1010.7
20260503204019 85 0 6.0 10.0 0.00 0.00 0.00 17 1010.9
20260503203040 85 0 5.0 10.0 0.00 0.00 0.00 19 1010.8
20260503202040 84 338 4.0 9.0 0.00 0.00 0.00 21 1010.9
20260503201019 83 315 3.0 7.0 0.00 0.00 0.00 21 1011.0
20260503200020 83 90 3.0 7.0 0.00 0.00 0.00 20 1011.2
20260503195020 83 23 1.0 4.0 0.00 0.00 0.00 22 1011.3
20260503194019 82 90 2.0 6.0 0.00 0.00 0.00 24 1011.5
20260503193020 82 0 2.0 5.0 0.00 0.00 0.00 22 1011.6
20260503192019 81 0.0 3.0 0.00 0.00 0.00 24 1011.7
20260503191019 81 0 2.0 6.0 0.00 0.00 0.00 23 1012.0
20260503190019 80 23 1.0 4.0 0.00 0.00 0.00 26 1012.0
20260503185019 79 338 3.0 8.0 0.00 0.00 0.00 25 1012.2
20260503184019 79 23 3.0 8.0 0.00 0.00 0.00 25 1012.3
20260503183019 78 248 2.0 8.0 0.00 0.00 0.00 25 1012.3
20260503182019 78 0 2.0 8.0 0.00 0.00 0.00 24 1012.4
20260503181019 77 0 5.0 10.0 0.00 0.00 0.00 25 1012.3
20260503180019 77 45 3.0 6.0 0.00 0.00 0.00 26 1012.4
20260503175019 76 23 4.0 9.0 0.00 0.00 0.00 27 1012.5
20260503174019 75 0 4.0 10.0 0.00 0.00 0.00 28 1012.5
20260503173019 75 0 4.0 9.0 0.00 0.00 0.00 28 1012.7
20260503172019 74 0 4.0 8.0 0.00 0.00 0.00 30 1012.7
20260503171019 74 23 4.0 7.0 0.00 0.00 0.00 30 1012.8
20260503131019 52 0 2.0 4.0 0.00 0.00 0.00 62 1012.6
20260503081020 64 23 2.0 4.0 0.00 0.00 0.00 39 1011.9